EW6025 Weather Reports


time (UTC)temp
C
wind
direction
speed
KPH
gust
KPH
rain 1hr
cm
rain 24hr
cm
rain mn
cm
humidity
%
barometer
mb
20260506124520 11 0.0 0.0 0.00 0.00 0.00 91 1020.9
20260506123542 11 0.0 0.0 0.00 0.00 0.00 91 1020.9
20260506122527 11 0.0 0.0 0.00 0.00 0.00 91 1020.9
20260506121521 11 0.0 0.0 0.00 0.00 0.00 91 1020.8
20260506120522 11 0.0 0.0 0.00 0.00 0.00 91 1020.8
20260506115556 11 0.0 0.0 0.00 0.03 0.00 91 1020.8
20260506114544 11 0.0 0.0 0.00 0.03 0.00 91 1020.7
20260506113517 11 0.0 0.0 0.00 0.03 0.00 91 1020.6
20260506112625 11 0.0 0.0 0.00 0.03 0.00 91 1020.6
20260506111521 11 0.0 0.0 0.00 0.03 0.00 91 1020.6
20260506110517 11 0.0 0.0 0.00 0.03 0.00 91 1020.5
20260506105527 11 0.0 0.0 0.00 0.03 0.00 91 1020.4
20260506104538 11 0.0 0.0 0.00 0.03 0.00 90 1020.3
20260506103521 11 0.0 0.0 0.00 0.03 0.00 90 1020.2
20260506102540 11 0.0 0.0 0.00 0.03 0.00 90 1020.1
20260506101519 11 0.0 0.0 0.00 0.03 0.00 90 1020.0
20260506100523 11 0.0 0.0 0.00 0.03 0.00 90 1020.0
20260506095520 11 0.0 0.0 0.00 0.03 0.00 90 1020.0
20260506094522 11 0.0 0.0 0.00 0.03 0.00 90 1019.9
20260506093524 11 0.0 0.0 0.00 0.03 0.00 90 1019.9
20260506092520 11 0.0 0.0 0.00 0.03 0.00 90 1019.8
20260506091522 11 0.0 0.0 0.00 0.03 0.00 89 1019.9
20260506090521 11 0.0 0.0 0.00 0.03 0.00 89 1019.9
20260506085523 11 0.0 0.0 0.00 0.03 0.00 89 1019.8
20260506084524 11 0.0 0.0 0.00 0.03 0.00 89 1019.9
20260506083522 12 0.0 0.0 0.00 0.03 0.00 89 1019.8
20260506082525 11 0.0 0.0 0.00 0.03 0.00 89 1019.7
20260506081611 11 0.0 0.0 0.00 0.03 0.00 89 1019.8
20260506080523 11 0.0 0.0 0.00 0.03 0.00 89 1019.8
20260506073518 12 0.0 0.0 0.00 0.03 0.00 89 1019.7
20260506072524 12 0.0 0.0 0.00 0.03 0.00 89 1019.7
20260506071516 12 0.0 0.0 0.00 0.03 0.00 89 1019.6
20260506070543 12 0.0 0.0 0.00 0.03 0.00 89 1019.5
20260506061522 12 0.0 0.0 0.00 0.03 0.03 89 1019.1
20260506060520 12 0.0 0.0 0.00 0.03 0.03 89 1018.9
20260506050538 12 0.0 1.6 0.00 0.03 0.03 88 1018.7
20260506044527 12 0.0 1.6 0.00 0.03 0.03 88 1018.6
20260506043518 12 0.0 0.0 0.00 0.03 0.03 89 1018.4
20260506042542 12 0.0 0.0 0.00 0.03 0.03 88 1018.4
20260506041521 12 0.0 0.0 0.00 0.03 0.03 88 1018.3
20260506040527 12 0.0 1.6 0.00 0.03 0.03 88 1018.0
20260506035539 12 187 0.0 1.6 0.00 0.03 0.03 88 1017.9
20260506034526 12 0.0 1.6 0.00 0.03 0.03 88 1017.8
20260506033606 12 189 0.0 1.6 0.00 0.03 0.03 88 1017.7
20260506032521 12 0.0 3.2 0.00 0.03 0.03 88 1017.6
20260506031524 12 0.0 1.6 0.00 0.03 0.03 87 1017.4
20260506030523 12 0.0 0.0 0.00 0.03 0.03 87 1017.4
20260506025540 12 0.0 0.0 0.00 0.03 0.03 87 1017.3
20260506024540 13 0.0 1.6 0.00 0.03 0.03 86 1017.2
20260506023519 13 0.0 1.6 0.00 0.03 0.03 86 1017.1
20260506022524 13 0.0 4.8 0.00 0.03 0.03 85 1017.0
20260506021523 13 105 0.0 3.2 0.00 0.03 0.03 84 1017.0
20260506020529 13 0.0 1.6 0.00 0.03 0.03 84 1016.9
20260506015521 13 106 0.0 1.6 0.00 0.03 0.03 83 1016.9
20260506014522 13 0.0 3.2 0.00 0.03 0.03 83 1016.8
20260506013520 14 106 0.0 3.2 0.00 0.03 0.03 83 1016.8
20260506012545 14 0.0 3.2 0.00 0.03 0.03 84 1016.8
20260506011520 13 0.0 1.6 0.00 0.03 0.03 84 1016.8
20260506010541 13 109 0.0 1.6 0.00 0.03 0.03 84 1016.8
20260506005522 14 109 0.0 1.6 0.00 0.03 0.03 84 1016.7
20260506004523 13 178 0.0 3.2 0.00 0.03 0.03 84 1016.8
20260506003522 14 178 0.0 3.2 0.00 0.03 0.03 84 1016.8
20260506002522 14 0.0 3.2 0.00 0.03 0.03 85 1016.7
20260506001521 14 179 0.0 3.2 0.00 0.03 0.03 84 1016.7
20260506000518 14 180 0.0 3.2 0.00 0.03 0.03 84 1016.7
20260505235519 14 0.0 1.6 0.00 0.03 0.03 85 1016.7
20260505234517 13 0.0 3.2 0.00 0.03 0.03 85 1016.8
20260505233631 13 208 0.0 3.2 0.00 0.03 0.03 85 1016.8
20260505232519 14 0.0 3.2 0.00 0.03 0.03 85 1016.8
20260505231538 14 155 0.0 3.2 0.00 0.03 0.03 85 1016.9
20260505230525 14 157 0.0 3.2 0.00 0.03 0.03 85 1017.0
20260505225520 14 93 0.0 1.6 0.00 0.03 0.03 85 1017.0
20260505224518 14 55 0.0 3.2 0.00 0.03 0.03 84 1017.0
20260505223522 15 74 0.0 3.2 0.00 0.03 0.03 84 1017.0
20260505222525 15 61 0.0 1.6 0.00 0.03 0.03 83 1017.1
20260505221524 15 59 0.0 6.4 0.00 0.03 0.03 82 1017.1
20260505220523 15 81 0.0 4.8 0.00 0.03 0.03 83 1017.0
20260505215521 15 0.0 6.4 0.00 0.03 0.03 83 1017.0
20260505214524 15 202 0.0 4.8 0.00 0.03 0.03 82 1017.1
20260505213519 15 207 0.0 3.2 0.00 0.03 0.03 81 1017.1
20260505212626 15 207 0.0 3.2 0.00 0.03 0.03 81 1017.0
20260505211528 15 106 0.0 4.8 0.00 0.03 0.03 81 1016.9
20260505210519 15 169 0.0 8.0 0.00 0.03 0.03 81 1016.9
20260505205526 15 215 0.0 4.8 0.00 0.03 0.03 81 1016.8
20260505204529 15 215 0.0 4.8 0.00 0.03 0.03 81 1016.8
20260505203524 15 0.0 3.2 0.00 0.03 0.03 83 1016.9
20260505202549 15 219 0.0 4.8 0.00 0.03 0.03 82 1016.9
20260505201520 15 220 1.6 6.4 0.00 0.03 0.03 82 1016.9
20260505200609 15 189 0.0 6.4 0.00 0.03 0.03 82 1016.9
20260505195525 15 167 1.6 6.4 0.00 0.03 0.03 82 1016.9
20260505194526 15 221 0.0 3.2 0.00 0.03 0.03 82 1016.8
20260505193527 15 221 0.0 3.2 0.00 0.03 0.03 82 1016.8
20260505192518 15 221 0.0 3.2 0.00 0.03 0.03 82 1016.9
20260505191524 15 221 0.0 3.2 0.00 0.03 0.03 82 1016.8
20260505190517 15 221 0.0 3.2 0.00 0.03 0.03 81 1016.7
20260505185518 15 223 0.0 3.2 0.00 0.03 0.03 80 1016.6
20260505184522 15 223 0.0 3.2 0.00 0.03 0.03 81 1016.6
20260505183520 15 202 0.0 3.2 0.00 0.03 0.03 81 1016.5
20260505182521 15 248 0.0 1.6 0.00 0.03 0.03 81 1016.5
20260505181522 15 263 0.0 3.2 0.00 0.03 0.03 82 1016.5
20260505180524 15 23 0.0 3.2 0.00 0.03 0.03 83 1016.4
20260505175521 15 0.0 1.6 0.00 0.05 0.03 83 1016.4
20260505174547 15 49 0.0 1.6 0.00 0.05 0.03 83 1016.3
20260505173600 14 49 0.0 3.2 0.00 0.05 0.03 83 1016.2
20260505172523 14 47 0.0 3.2 0.00 0.05 0.03 83 1016.2
20260505171522 14 40 0.0 3.2 0.00 0.05 0.03 84 1016.2
20260505170522 14 40 0.0 1.6 0.00 0.05 0.03 84 1016.2
20260505165521 14 38 0.0 3.2 0.00 0.05 0.03 85 1016.2
20260505164526 14 0.0 1.6 0.00 0.05 0.03 86 1016.1
20260505163523 13 0.0 6.4 0.00 0.05 0.03 87 1016.1
20260505162525 13 308 0.0 6.4 0.00 0.05 0.03 87 1016.0
20260505161528 13 204 0.0 3.2 0.00 0.05 0.03 88 1016.0
20260505160520 13 286 0.0 1.6 0.00 0.05 0.03 89 1016.0
20260505152521 12 0.0 0.0 0.00 0.05 0.03 91 1016.1
20260505151519 12 0.0 1.6 0.00 0.05 0.03 92 1015.9
20260505150516 12 0.0 1.6 0.00 0.05 0.03 92 1015.9
20260505140525 11 0.0 0.0 0.00 0.05 0.03 92 1015.4